Regional Weather Roundup
Issued by NWS Austin/San Antonio, TX

Home | Current Version | Previous Version | Graphics & Text | Print | Product List | Glossary On
Versions: 1 2 3 4 5 6 7 8 9 10 11 12 13 14 15 16 17 18 19 20 21 22 23 24 25 26 27 28 29 30 31 32 33 34 35 36 37 38 39 40 41 42 43 44 45 46 47 48 49 50
000
ASUS44 KEWX 281502
RWREWX
SOUTH TEXAS REGIONAL WEATHER ROUNDUP
NATIONAL WEATHER SERVICE AUSTIN/SAN ANTONIO TX
1000 AM CDT FRI APR 28 2017

NOTE: "FAIR" INDICATED FEW OR NO CLOUDS BELOW 12,000 FEET WITH NO
SIGNIFICANT WEATHER AND/OR OBSTRUCTIONS TO VISIBILITY.

* - THESE STATIONS ARE NOT NWS OR FAA STATIONS...AND ARE NOT SUBJECT
    TO NWS AND FAA QUALITY CONTROL.

TXZ171-172-183>190-281600-
TEXAS HILL COUNTRY AND EDWARDS PLATEAU

CITY           SKY/WX    TMP DP  RH WIND       PRES   REMARKS
JUNCTION       SUNNY     75  66  73 SW7       29.65R
*LLANO         SUNNY     75  66  73 S9        29.66S
BURNET         MOSUNNY   75  65  70 S8        29.66F
*HORSESHOE BAY SUNNY     78  66  67 S8G16     29.64S
*KERRVILLE     CLOUDY    72  68  87 S9        29.66F
*FREDERICKSBRG CLOUDY    73  63  72 S10       29.66R
*ROCKSPRINGS   CLOUDY    70  66  88 SW8       29.70S FOG
*BOERNE STAGE  CLOUDY    72  64  78 S7        29.67R
*CASTROVILLE   CLOUDY    76  66  71 SE8       29.65R
HONDO            N/A     76  68  76 SE12      29.63F
*UVALDE        CLOUDY    72  68  87 CALM      29.64S FOG
DEL RIO        CLOUDY    75  69  81 SE6       29.61R
LAUGHLIN AFB   CLOUDY    75  69  81 E6        29.62R
CARRIZO SPRGS  CLOUDY    73  70  88 SE5       29.59S
*EAGLE PASS    NOT AVBL
$$

TXZ173-191>194-202-209-217>225-228-281600-
CENTRAL AND SOUTH CENTRAL TEXAS

CITY           SKY/WX    TMP DP  RH WIND       PRES   REMARKS
GEORGETOWN     CLOUDY    75  64  69 S12G21    29.64F
AUSTIN/BERGSTM PTSUNNY   79  69  71 S12       29.64S
AUSTIN/MABRY   PTSUNNY   76  68  76 VRB6      29.66R
*AUSTIN/EXEC   PTSUNNY   75  68  78 S9        29.66S
*LAGO VISTA    CLOUDY    76  66  71 S10G18    29.66S
SAN MARCOS     CLOUDY    75  70  83 S12       29.66R FOG
NEW BRAUNFELS  CLOUDY    76  69  79 S12       29.64S HAZE
RANDOLPH AFB   NOT AVBL
PT SAN ANTONIO PTSUNNY   77  68  75 SE14      29.61F
SAN ANTONIO    PTSUNNY   76  68  76 S14G21    29.64F
STINSON FIELD  CLOUDY    78  69  73 SE9       29.62F
*LA GRANGE     PTSUNNY   80  73  79 S12G18    29.64R
*GIDDINGS      MOSUNNY   78  69  74 S6        29.66S
*GONZALES      MOSUNNY   80  73  77 S13       29.65R
$$

TXZ163>164-176>182-195>201-210>213-226-227-235-281600-
SOUTHEAST TEXAS

CITY           SKY/WX    TMP DP  RH WIND       PRES   REMARKS
COLLEGE STN    PTSUNNY   79  70  74 S14G21    29.66R
*BRYAN         PTSUNNY   78  70  76 S13G20    29.68S
*CALDWELL      NOT AVBL
*CROCKETT      MOSUNNY   77  72  83 S7        29.71R
*BRENHAM       PTSUNNY   80  71  74 S16       29.68R
HUNTSVILLE     SUNNY     82  69  64 S10G21    29.67R
CONROE         MOSUNNY   82  70  66 S22G30    29.68R
HOUSTON BUSH   PTSUNNY   82  71  69 S16       29.68S
HOUSTON HOBBY  MOSUNNY   80  72  76 S16G22    29.68S
*HOUSTON SW AP PTSUNNY   79  71  77 S12G20    29.70R
PEARLAND       CLOUDY    82  72  71 S15G24    29.70S
HOUSTON HOOKS  MOSUNNY   81  71  71 S12G21    29.67S
ELLINGTON FLD  PTSUNNY   84  59  42 SE20G25   29.71R
SUGAR LAND     CLOUDY    82  72  71 S22       29.67F
*HOUSTON EXEC  CLOUDY    79  72  78 S17G23    29.68S HAZE
*CLEVELAND MUN PTSUNNY   81  73  76 S17G26    29.70R HAZE
*WHARTON       PTSUNNY   80  71  73 SE16      29.68R
*COLUMBUS      CLOUDY    78  71  78 S10G18    29.67S
*EAGLE LAKE    CLOUDY    80  74  81 S16G22    29.67S
$$

TXZ214>216-236>238-281600-
THE UPPER TEXAS COAST

CITY           SKY/WX    TMP DP  RH WIND       PRES   REMARKS
*ORANGE        CLOUDY    80  75  83 S16       29.76R HAZE
PORT ARTHUR    CLOUDY    82  73  74 S18G29    29.73R
GALVESTON      PTSUNNY   82  76  81 SE16      29.72R HAZE
ANGLETON       CLOUDY    83  74  74 S22       29.69R
*BAY CITY      CLOUDY    81  73  78 S17       29.68R HAZE
PALACIOS       CLOUDY    79  73  82 SE20      29.66R
$$

TXZ229>234-239>247-281600-
TEXAS COASTAL BEND AND RIO GRANDE PLAINS

CITY           SKY/WX    TMP DP  RH WIND       PRES   REMARKS
VICTORIA       CLOUDY    80  72  76 S18       29.65R
*BEEVILLE      MOSUNNY   82  74  77 S17       29.63R
ROCKPORT       CLOUDY    80  73  79 SE13G24   29.63S HAZE
*PORT ARANSAS  CLOUDY    79  73  83 S14G21    29.63R
*PORT LAVACA   CLOUDY    79  75  87 S17       29.66R
*INGLESIDE     DRZL/FOG  81  74  79 SE18G25   29.62S VSB<1/4
CORPUS CHRISTI PTSUNNY   81  74  79 SE22      29.61S
CORPUS NAS     NOT AVBL
*ROBSTOWN      MOSUNNY   82  74  75 SE17G23   29.62R
ALICE          MOSUNNY   81  70  69 S15       29.61R
KINGSVILLE NAS NOT AVBL
COTULLA        CLOUDY    76  68  76 SE10      29.60F
*FAITH RANCH   PTSUNNY   75  70  83 SE7       29.60S
LAREDO         PTSUNNY   80  71  74 SE10      29.60R
$$

TXZ248>255-281600-
DEEP SOUTH TEXAS

CITY           SKY/WX    TMP DP  RH WIND       PRES   REMARKS
BROWNSVILLE    SUNNY     85  74  69 S26G36    29.62R HX  92
PORT ISABEL    SUNNY     85  74  69 S22G32    29.61R HAZE    HX  92
*SOUTH PADRE   NOT AVBL
HARLINGEN      SUNNY     85  75  72 S25       29.58S HX  93
*HEBBRONVILLE  SUNNY     77  68  74 S12G17    29.61S
MCALLEN        SUNNY     85  71  63 S20       29.59R HX  90
*WESLACO       SUNNY     85  72  66 S20G28    29.58S HX  90
FALFURRIAS     PTSUNNY   80  72  77 S8        29.60R
EDINBURG       SUNNY     86  71  59 SE14G21   29.59S HX  92
*ZAPATA        MOSUNNY   80  68  67 SE8       29.59R
$$

TXZ213>215-236>238-242>244-246-247-251-254-255-281600-
CMAN STATIONS

STATION/POSITION TIME  TEMP    WIND        PRES    WAVE
                       AIR SEA DIR/SP/G            HT/PER
                 (UTC) (F)     (DEG/KT/KT) (MB)    (FT/S)
SABINE PASS      1430   78 77  150/ 14/ 18 1008.5
SEA RIM ST PARK  1400   76     150/ 13/ 16 1007.2
NORTH JETTY/GLS  1430      75  150/ 14/ 16 1005.8
EAGLE POINT      1430   78 75  180/ 19/ 21 1005.6
MORGANS POINT    1430   77 75  150/  7/ 11 1005.7
MISSION/ARANSAS  1400   77                 1004.0
PORT O`CONNOR    1430   76     140/ 14/ 17 1003.7
PORT ARANSAS     1400   76 76  140/ 15/ 17 1003.0
MALAQUITE BEACH  1430   78 77  140/ 20/ 22 1003.2
BAFFIN BAY       1430   78 77  110/ 15/ 21 1002.7
PORT ISABEL      1430   80 80  160/ 22/ 30 1002.5
$$



USA.gov is the U.S. government's official web portal to all federal, state and local government web resources and services.